Hourly Weather Roundup
Issued by NWS Central Illinois

Home | Current Version | Previous Version | Graphics & Text | Print | Product List | Glossary On
Versions: 1 2 3 4 5 6 7 8 9 10 11 12 13 14 15 16 17 18 19 20 21 22 23 24 25 26 27 28 29 30 31 32 33 34 35 36 37 38 39 40 41 42 43 44 45 46 47 48 49 50
000
NZUS43 KILX 141110
HWRILX

AREA WEATHER ROUNDUP
NATIONAL WEATHER SERVICE, LINCOLN IL
600 AM CDT SUN SEP 14 2014


CITY           SKY/WX    TMP DP  RH WIND       PRES   REMARKS
BLOOMINGTON    CLEAR     39  37  92 SE3       30.32F
CHAMPAIGN      CLEAR     43  40  89 NE5       30.32R
DECATUR        CLEAR     41  38  89 NE3       30.32R
FLORA          CLEAR     44  44  99 CALM      30.31S
GALESBURG      CLEAR     39  38  95 CALM      30.30S
JACKSONVILLE   CLEAR     40  39  95 CALM      30.32S
LACON          PTCLDY    38  37  94 CALM      30.31S
LAWRENCEVILLE  CLEAR     45  44  97 CALM      30.30S
LITCHFIELD     PTCLDY    40  40  99 CALM      30.31R
$$


CITY           SKY/WX    TMP DP  RH WIND       PRES   REMARKS
LINCOLN        CLEAR     41  40  96 CALM      30.32R
MACOMB         CLEAR     37  37 100 CALM      30.32F
MATTOON        PTCLDY    43  40  89 NW3       30.30S
MT CARMEL AP   CLEAR     45  43  93 CALM      30.30R
OLNEY-NOBLE AP PTCLDY    41  41 100 CALM      30.31R
PARIS          PTCLDY    40  40 100 CALM      30.32S
PEORIA         CLEAR     43  40  89 CALM      30.32S
PONTIAC        CLEAR     41  41 100 CALM      30.32F FOG
RANTOUL        CLEAR     45  40  84 N5        30.33S
ROBINSON       PTCLDY    42  42 100 CALM      30.31F FOG
SPRINGFIELD    CLEAR     41  38  89 CALM      30.32R
TAYLORVILLE    PTCLDY    37  37 100 CALM      30.32R FOG
$$

...REGIONAL REPORTS...


CITY           SKY/WX    TMP DP  RH WIND       PRES   REMARKS
CHICAGO O`HARE PTCLDY    42  40  92 CALM      30.31F
KANKAKEE       CLOUDY    40  40  99 CALM      30.34R FOG
MOLINE         CLEAR     38  36  92 E3        30.30F
MOUNT VERNON   PTCLDY    43  37  81 N3        30.30S
PITTSFIELD     CLEAR     41  39  93 CALM      30.32R
QUINCY         CLEAR     45  39  79 SE6       30.30S
ROCKFORD       CLEAR     39  37  92 S3        30.32F
$$


CITY           SKY/WX    TMP DP  RH WIND       PRES   REMARKS
BURLINGTON     LGT RAIN  43  42  97 CALM      30.29F
CEDAR RAPIDS   PTCLDY    41  39  93 S6        30.26F
DES MOINES     CLOUDY    50  44  80 S7        30.24S
KIRKSVILLE     PTCLDY    41  39  93 SE3       30.28F
OTTUMWA        CLOUDY    46  42  86 S7        30.27S
ST LOUIS       PTCLDY    48  43  82 CALM      30.30S
$$


CITY           SKY/WX    TMP DP  RH WIND       PRES   REMARKS
TERRE HAUTE    PTCLDY    41  40  96 CALM      30.31R FOG
EVANSVILLE     PTCLDY    49  45  86 CALM      30.29R
INDIANAPOLIS   PTCLDY    47  42  83 NE6       30.30S
LAFAYETTE      CLEAR     41  40  96 CALM      30.32S FOG
MADISON        MOCLDY    47  41  80 S6        30.28F
MILWAUKEE      MOCLDY    47  42  83 SW7       30.30F
$$





USA.gov is the U.S. government's official web portal to all federal, state and local government web resources and services.